• în România
  • Lista ţărilor
  • Pe 7 zile
  • Temperatura apei
  • Hartă satelitară
  • Meteo pe hartă
  • Widget-uri
  • user-avatar
    Intrare

    Meteo pe oră la Tatischevo

    Astăzi, 18 Octombrie, Joi

    Timp Temperatura Precipitaţii Vânt Presiune Umiditate
    00:00 +10°C° 0 mm 3 m/s 749 mmHg 88%
    01:00 +9°C° 0 mm 2 m/s 749 mmHg 87%
    02:00 +9°C° 0 mm 2 m/s 749 mmHg 87%
    03:00 +9°C° 0 mm 1 m/s 749 mmHg 89%
    04:00 +8°C° 0 mm 1 m/s 749 mmHg 89%
    05:00 +8°C° 0 mm 1 m/s 749 mmHg 89%
    06:00 +8°C° 0 mm 1 m/s 749 mmHg 89%
    07:00 +9°C° 0 mm 1 m/s 749 mmHg 83%
    08:00 +10°C° 0 mm 1 m/s 750 mmHg 78%
    09:00 +11°C° 0 mm 1 m/s 750 mmHg 71%
    10:00 +12°C° 0 mm 1 m/s 750 mmHg 66%
    11:00 +13°C° 0 mm 1 m/s 750 mmHg 60%
    12:00 +14°C° 0 mm 1 m/s 750 mmHg 55%
    13:00 +14°C° 0 mm 1 m/s 750 mmHg 53%
    14:00 +14°C° 0 mm 1 m/s 749 mmHg 51%
    15:00 +15°C° 0 mm 1 m/s 749 mmHg 49%
    16:00 +14°C° 0 mm 1 m/s 749 mmHg 52%
    17:00 +13°C° 0 mm 1 m/s 749 mmHg 56%
    18:00 +12°C° 0 mm 1 m/s 749 mmHg 60%
    19:00 +11°C° 0 mm 1 m/s 748 mmHg 61%
    20:00 +10°C° 0 mm 2 m/s 748 mmHg 63%
    21:00 +10°C° 0 mm 2 m/s 748 mmHg 64%
    22:00 +9°C° 0 mm 2 m/s 748 mmHg 66%
    23:00 +9°C° 0 mm 2 m/s 748 mmHg 67%

    Mâine, 19 Octombrie, Vineri

    Timp Temperatura Precipitaţii Vânt Presiune Umiditate
    00:00 +9°C° 0 mm 2 m/s 748 mmHg 69%
    01:00 +9°C° 0 mm 2 m/s 748 mmHg 71%
    02:00 +8°C° 0 mm 2 m/s 748 mmHg 73%
    03:00 +8°C° 0 mm 3 m/s 748 mmHg 74%
    04:00 +8°C° 0 mm 3 m/s 748 mmHg 76%
    05:00 +8°C° 0 mm 3 m/s 747 mmHg 77%
    06:00 +8°C° 0 mm 3 m/s 747 mmHg 79%
    07:00 +9°C° 0 mm 3 m/s 747 mmHg 74%
    08:00 +10°C° 0 mm 3 m/s 747 mmHg 70%
    09:00 +11°C° 0 mm 3 m/s 747 mmHg 66%
    10:00 +13°C° 0 mm 3 m/s 747 mmHg 61%
    11:00 +14°C° 0 mm 4 m/s 747 mmHg 57%
    12:00 +17°C° 0 mm 4 m/s 747 mmHg 52%
    13:00 +17°C° 0 mm 4 m/s 747 mmHg 51%
    14:00 +17°C° 0 mm 4 m/s 746 mmHg 50%
    15:00 +18°C° 0 mm 4 m/s 746 mmHg 48%
    16:00 +16°C° 0 mm 3 m/s 746 mmHg 52%
    17:00 +14°C° 0 mm 3 m/s 745 mmHg 56%
    18:00 +13°C° 0 mm 3 m/s 745 mmHg 61%
    19:00 +12°C° 0 mm 3 m/s 745 mmHg 61%
    20:00 +12°C° 0 mm 3 m/s 745 mmHg 62%
    21:00 +11°C° 0 mm 3 m/s 745 mmHg 62%
    22:00 +11°C° 0 mm 3 m/s 745 mmHg 62%
    23:00 +10°C° 0 mm 3 m/s 744 mmHg 62%

    Poimâine, 20 Octombrie, Sâmbătă

    Timp Temperatura Precipitaţii Vânt Presiune Umiditate
    00:00 +10°C° 0 mm 3 m/s 744 mmHg 62%
    01:00 +9°C° 0 mm 3 m/s 744 mmHg 62%
    02:00 +9°C° 0 mm 3 m/s 744 mmHg 62%
    03:00 +9°C° 0 mm 3 m/s 743 mmHg 63%
    04:00 +9°C° 0 mm 3 m/s 743 mmHg 64%
    05:00 +8°C° 0 mm 3 m/s 743 mmHg 66%
    06:00 +8°C° 0 mm 3 m/s 742 mmHg 68%
    07:00 +9°C° 0 mm 3 m/s 742 mmHg 66%
    08:00 +10°C° 0 mm 3 m/s 742 mmHg 64%
    09:00 +11°C° 0 mm 4 m/s 742 mmHg 62%
    10:00 +13°C° 0 mm 4 m/s 742 mmHg 59%
    11:00 +14°C° 0 mm 4 m/s 742 mmHg 56%
    12:00 +17°C° 0 mm 4 m/s 742 mmHg 52%
    13:00 +17°C° 0 mm 4 m/s 742 mmHg 52%
    14:00 +17°C° 0 mm 3 m/s 742 mmHg 53%
    15:00 +17°C° 0 mm 3 m/s 742 mmHg 53%
    16:00 +16°C° 0 mm 3 m/s 742 mmHg 60%
    17:00 +13°C° 0 mm 3 m/s 742 mmHg 67%
    18:00 +13°C° 0 mm 2 m/s 743 mmHg 75%
    19:00 +12°C° 0 mm 2 m/s 743 mmHg 79%
    20:00 +10°C° 0 mm 3 m/s 743 mmHg 83%
    21:00 +10°C° 0 mm 3 m/s 743 mmHg 87%
    22:00 +9°C° 0 mm 3 m/s 743 mmHg 86%
    23:00 +9°C° 0 mm 3 m/s 743 mmHg 85%

    21 Octombrie, Duminică

    Timp Temperatura Precipitaţii Vânt Presiune Umiditate
    00:00 +8°C° 0 mm 3 m/s 743 mmHg 83%
    01:00 +7°C° 0 mm 3 m/s 743 mmHg 82%
    02:00 +7°C° 0 mm 3 m/s 743 mmHg 81%
    03:00 +7°C° 0 mm 3 m/s 743 mmHg 80%
    04:00 +5°C° 0 mm 3 m/s 743 mmHg 81%
    05:00 +5°C° 0 mm 3 m/s 743 mmHg 81%
    06:00 +5°C° 0 mm 3 m/s 743 mmHg 82%
    07:00 +5°C° 0 mm 3 m/s 744 mmHg 78%
    08:00 +7°C° 0 mm 3 m/s 744 mmHg 74%
    09:00 +7°C° 0 mm 4 m/s 744 mmHg 70%
    10:00 +8°C° 0 mm 4 m/s 744 mmHg 68%
    11:00 +8°C° 0 mm 4 m/s 744 mmHg 65%
    12:00 +10°C° 0 mm 4 m/s 744 mmHg 62%
    13:00 +11°C° 0 mm 4 m/s 744 mmHg 61%
    14:00 +11°C° 0 mm 4 m/s 744 mmHg 60%
    15:00 +11°C° 0 mm 4 m/s 744 mmHg 59%
    16:00 +11°C° 0 mm 4 m/s 744 mmHg 60%
    17:00 +10°C° 0 mm 4 m/s 745 mmHg 62%
    18:00 +10°C° 0 mm 4 m/s 745 mmHg 63%
    19:00 +8°C° 0 mm 4 m/s 745 mmHg 63%
    20:00 +8°C° 0 mm 4 m/s 745 mmHg 63%
    21:00 +8°C° 0 mm 4 m/s 745 mmHg 63%
    22:00 +8°C° 0 mm 4 m/s 745 mmHg 63%
    23:00 +7°C° 0 mm 4 m/s 746 mmHg 64%

    22 Octombrie, Luni

    Timp Temperatura Precipitaţii Vânt Presiune Umiditate
    00:00 +7°C° 0 mm 4 m/s 746 mmHg 64%
    01:00 +7°C° 0 mm 4 m/s 746 mmHg 66%
    02:00 +6°C° 0 mm 4 m/s 746 mmHg 67%
    03:00 +6°C° 0 mm 4 m/s 746 mmHg 68%
    04:00 +6°C° 0 mm 4 m/s 746 mmHg 70%
    05:00 +5°C° 0 mm 4 m/s 746 mmHg 72%
    06:00 +5°C° 0 mm 4 m/s 746 mmHg 74%
    07:00 +5°C° 0 mm 4 m/s 747 mmHg 72%
    08:00 +6°C° 0 mm 4 m/s 747 mmHg 70%
    09:00 +6°C° 0 mm 5 m/s 747 mmHg 68%
    10:00 +7°C° 0 mm 4 m/s 747 mmHg 64%
    11:00 +10°C° 0 mm 4 m/s 747 mmHg 60%
    12:00 +11°C° 0 mm 4 m/s 747 mmHg 56%
    13:00 +11°C° 0 mm 4 m/s 747 mmHg 55%
    14:00 +11°C° 0 mm 4 m/s 746 mmHg 54%
    15:00 +12°C° 0 mm 3 m/s 746 mmHg 53%
    16:00 +11°C° 0 mm 3 m/s 746 mmHg 56%
    17:00 +10°C° 0 mm 3 m/s 746 mmHg 59%
    18:00 +9°C° 0 mm 3 m/s 746 mmHg 63%
    19:00 +9°C° 0 mm 3 m/s 746 mmHg 63%
    20:00 +8°C° 0 mm 3 m/s 746 mmHg 63%
    21:00 +8°C° 0 mm 3 m/s 746 mmHg 64%
    22:00 +8°C° 0 mm 3 m/s 746 mmHg 64%
    23:00 +8°C° 0 mm 3 m/s 745 mmHg 65%

    23 Octombrie, Marţi

    Timp Temperatura Precipitaţii Vânt Presiune Umiditate
    00:00 +8°C° 0 mm 3 m/s 745 mmHg 65%
    01:00 +8°C° 0 mm 2 m/s 745 mmHg 65%
    02:00 +8°C° 0 mm 2 m/s 745 mmHg 66%
    03:00 +8°C° 0 mm 2 m/s 744 mmHg 66%
    04:00 +8°C° 0.1 mm 2 m/s 744 mmHg 67%
    05:00 +8°C° 0.1 mm 3 m/s 744 mmHg 69%
    06:00 +8°C° 0.1 mm 3 m/s 744 mmHg 71%
    07:00 +8°C° 0.6 mm 2 m/s 744 mmHg 75%
    08:00 +8°C° 0.6 mm 2 m/s 744 mmHg 79%
    09:00 +8°C° 0.6 mm 2 m/s 743 mmHg 83%
    10:00 +9°C° 0.2 mm 2 m/s 743 mmHg 78%
    11:00 +9°C° 0.2 mm 3 m/s 743 mmHg 74%
    12:00 +10°C° 0.2 mm 3 m/s 743 mmHg 70%
    13:00 +11°C° 0 mm 3 m/s 743 mmHg 67%
    14:00 +11°C° 0 mm 3 m/s 742 mmHg 63%
    15:00 +11°C° 0 mm 3 m/s 742 mmHg 60%
    16:00 +11°C° 0.1 mm 3 m/s 742 mmHg 63%
    17:00 +10°C° 0.1 mm 3 m/s 742 mmHg 66%
    18:00 +10°C° 0.1 mm 3 m/s 741 mmHg 68%
    19:00 +10°C° 0 mm 2 m/s 741 mmHg 69%
    20:00 +10°C° 0 mm 2 m/s 741 mmHg 70%
    21:00 +9°C° 0 mm 2 m/s 740 mmHg 70%
    22:00 +9°C° 0 mm 2 m/s 740 mmHg 69%
    23:00 +9°C° 0 mm 2 m/s 740 mmHg 68%
    Arată mai mult